,,,PA_Meas_PMT16A,,PR_Meas_QMR101_102,,RH_Meas_QMH101,,SR_Meas_QMS101,,TA_Meas_QMH101,,GenWind,,GenWind,
date,time,status,PA,status,PR,status,RH,status,SR,status,TA,status,DirAvg,status,SpdAvg,
2008-06-16, 00:00:04,VALID,1003.62,VALID,0,VALID,86.2216,VALID,0.100563,VALID,25.5921,VALID,5,VALID,0.0539063,
2008-06-16, 00:01:04,VALID,1003.63,VALID,0,VALID,86.2521,VALID,0.100563,VALID,25.5921,VALID,3,VALID,0.450391,
2008-06-16, 00:02:04,VALID,1003.63,VALID,0,VALID,85.9622,VALID,0.100563,VALID,25.5727,VALID,343,VALID,0.7625,
2008-06-16, 00:03:04,VALID,1003.62,VALID,0,VALID,85.7868,VALID,0.100563,VALID,25.5921,VALID,2,VALID,0.838672,
2008-06-16, 00:04:04,VALID,1003.62,VALID,0,VALID,85.7715,VALID,0,VALID,25.5921,VALID,347,VALID,0.822266,
2008-06-16, 00:05:04,VALID,1003.62,VALID,0,VALID,85.7486,VALID,0,VALID,25.6116,VALID,6,VALID,0.408984,
2008-06-16, 00:06:04,VALID,1003.65,VALID,0,VALID,85.6571,VALID,0,VALID,25.6116,VALID,353,VALID,0.671484,
2008-06-16, 00:07:04,VALID,1003.62,VALID,0,VALID,85.6113,VALID,0.100563,VALID,25.6311,VALID,350,VALID,0.790234,
2008-06-16, 00:08:04,VALID,1003.62,VALID,0,VALID,85.6189,VALID,0.100563,VALID,25.6311,VALID,354,VALID,0.482031,
2008-06-16, 00:09:04,VALID,1003.6,VALID,0,VALID,85.5274,VALID,0.100563,VALID,25.6292,VALID,350,VALID,0.773047,
2008-06-16, 00:10:04,VALID,1003.56,VALID,0,VALID,85.4282,VALID,0.100563,VALID,25.6506,VALID,296,VALID,0.805469,
2008-06-16, 00:11:04,VALID,1003.57,VALID,0,VALID,85.3138,VALID,0,VALID,25.67,VALID,344,VALID,0.142188,
2008-06-16, 00:12:04,VALID,1003.57,VALID,0,VALID,85.3214,VALID,0.100563,VALID,25.6895,VALID,345,VALID,0.567578,
2008-06-16, 00:13:04,VALID,1003.54,VALID,0,VALID,85.329,VALID,0.100563,VALID,25.67,VALID,346,VALID,0.216016,
2008-06-16, 00:14:04,VALID,1003.52,VALID,0,VALID,85.2909,VALID,0.100563,VALID,25.6506,VALID,1,VALID,0.460547,
2008-06-16, 00:15:04,VALID,1003.5,VALID,0,VALID,85.1688,VALID,0,VALID,25.6506,VALID,331,VALID,0.805859,
2008-06-16, 00:16:04,VALID,1003.49,VALID,0,VALID,85.0239,VALID,0.100563,VALID,25.67,VALID,349,VALID,0.651172,
2008-06-16, 00:17:04,VALID,1003.47,VALID,0,VALID,85.001,VALID,0.100563,VALID,25.67,VALID,341,VALID,0.602344,
2008-06-16, 00:18:04,VALID,1003.46,VALID,0,VALID,85.0849,VALID,0,VALID,25.672,VALID,303,VALID,0.0597656,
2008-06-16, 00:19:04,VALID,1003.44,VALID,0,VALID,85.0162,VALID,0,VALID,25.6311,VALID,341,VALID,0.560156,
2008-06-16, 00:20:04,VALID,1003.4,VALID,0,VALID,84.9552,VALID,0,VALID,25.6525,VALID,355,VALID,0.767578,
2008-06-16, 00:21:04,VALID,1003.35,VALID,0,VALID,85.062,VALID,0,VALID,25.6545,VALID,356,VALID,0.305859,
2008-06-16, 00:22:04,VALID,1003.32,VALID,0,VALID,85.1307,VALID,0,VALID,25.6136,VALID,356,VALID,0.514844,
2008-06-16, 00:23:04,VALID,1003.31,VALID,0,VALID,85.1993,VALID,0,VALID,25.6136,VALID,356,VALID,0.009375,
2008-06-16, 00:24:04,VALID,1003.3,VALID,0,VALID,85.3443,VALID,0,VALID,25.5746,VALID,353,VALID,0.238672,
2008-06-16, 00:25:04,VALID,1003.32,VALID,0,VALID,85.4129,VALID,0,VALID,25.5746,VALID,294,VALID,0.779688,
2008-06-16, 00:26:04,VALID,1003.32,VALID,0,VALID,85.4358,VALID,0,VALID,25.5746,VALID,262,VALID,0.141406,
2008-06-16, 00:27:04,VALID,1003.33,VALID,0,VALID,85.3901,VALID,0,VALID,25.5551,VALID,262,VALID,0.323438,
2008-06-16, 00:28:04,VALID,1003.31,VALID,0,VALID,85.3672,VALID,0,VALID,25.596,VALID,263,VALID,0.166406,
2008-06-16, 00:29:04,VALID,1003.32,VALID,0,VALID,85.4587,VALID,0,VALID,25.5551,VALID,264,VALID,0.155469,
2008-06-16, 00:30:04,VALID,1003.31,VALID,0,VALID,85.4663,VALID,0,VALID,25.5551,VALID,349,VALID,0.505078,
2008-06-16, 00:31:04,VALID,1003.31,VALID,0,VALID,85.4969,VALID,0,VALID,25.5551,VALID,351,VALID,0.544531,
2008-06-16, 00:32:04,VALID,1003.31,VALID,0,VALID,85.5808,VALID,0,VALID,25.5551,VALID,356,VALID,0.739453,
2008-06-16, 00:33:04,VALID,1003.32,VALID,0,VALID,85.6037,VALID,0,VALID,25.5746,VALID,344,VALID,0.341406,
2008-06-16, 00:34:04,VALID,1003.33,VALID,0,VALID,85.6647,VALID,0,VALID,25.5941,VALID,325,VALID,0.230859,
2008-06-16, 00:35:04,VALID,1003.38,VALID,0,VALID,85.6266,VALID,0,VALID,25.5941,VALID,328,VALID,0.253906,
2008-06-16, 00:36:04,VALID,1003.35,VALID,0,VALID,85.5503,VALID,0,VALID,25.6136,VALID,347,VALID,0.889844,
2008-06-16, 00:37:04,VALID,1003.35,VALID,0,VALID,85.4587,VALID,0,VALID,25.6136,VALID,356,VALID,1.04688,
2008-06-16, 00:38:04,VALID,1003.38,VALID,0,VALID,85.2604,VALID,0,VALID,25.6525,VALID,335,VALID,0.534766,
2008-06-16, 00:39:04,VALID,1003.37,VALID,0,VALID,85.1841,VALID,0,VALID,25.6915,VALID,350,VALID,0.581641,
2008-06-16, 00:40:04,VALID,1003.37,VALID,0,VALID,85.207,VALID,0,VALID,25.6895,VALID,350,VALID,0.00820312,
2008-06-16, 00:41:04,VALID,1003.38,VALID,0,VALID,85.2604,VALID,0,VALID,25.7109,VALID,351,VALID,0.0195313,
2008-06-16, 00:42:04,VALID,1003.38,VALID,0,VALID,85.2299,VALID,0,VALID,25.7109,VALID,311,VALID,0.259766,
2008-06-16, 00:43:04,VALID,1003.39,VALID,0,VALID,85.3519,VALID,0,VALID,25.7109,VALID,312,VALID,0.0078125,
2008-06-16, 00:44:04,VALID,1003.35,VALID,0,VALID,85.2451,VALID,0,VALID,25.6915,VALID,347,VALID,0.549609,
2008-06-16, 00:45:04,VALID,1003.32,VALID,0,VALID,85.1307,VALID,0,VALID,25.6915,VALID,338,VALID,0.489453,
2008-06-16, 00:46:04,VALID,1003.32,VALID,0,VALID,85.0315,VALID,0,VALID,25.7109,VALID,358,VALID,0.460938,
2008-06-16, 00:47:04,VALID,1003.3,VALID,0,VALID,85.0773,VALID,0,VALID,25.7519,VALID,354,VALID,0.652344,
2008-06-16, 00:48:04,VALID,1003.23,VALID,0,VALID,84.9705,VALID,0,VALID,25.7304,VALID,347,VALID,0.322656,
2008-06-16, 00:49:04,VALID,1003.24,VALID,0,VALID,84.7569,VALID,0,VALID,25.7499,VALID,350,VALID,0.926953,
2008-06-16, 00:50:04,VALID,1003.23,VALID,0,VALID,84.6882,VALID,0,VALID,25.7889,VALID,350,VALID,0.688281,
2008-06-16, 00:51:04,VALID,1003.23,VALID,0,VALID,84.6195,VALID,0,VALID,25.7889,VALID,353,VALID,0.772266,
2008-06-16, 00:52:04,VALID,1003.19,VALID,0,VALID,84.5661,VALID,0,VALID,25.8493,VALID,344,VALID,0.760156,
2008-06-16, 00:53:04,VALID,1003.17,VALID,0,VALID,84.4364,VALID,0,VALID,25.8083,VALID,354,VALID,1.00078,
2008-06-16, 00:54:04,VALID,1003.19,VALID,0,VALID,84.3602,VALID,0,VALID,25.8278,VALID,340,VALID,0.682031,
2008-06-16, 00:55:04,VALID,1003.18,VALID,0,VALID,84.383,VALID,0,VALID,25.8473,VALID,360,VALID,0.773438,
2008-06-16, 00:56:04,VALID,1003.15,VALID,0,VALID,84.3907,VALID,0,VALID,25.8668,VALID,346,VALID,0.326953,
2008-06-16, 00:57:04,VALID,1003.14,VALID,0,VALID,84.3449,VALID,0,VALID,25.8668,VALID,351,VALID,0.895312,
2008-06-16, 00:58:04,VALID,1003.11,VALID,0,VALID,84.4212,VALID,0,VALID,25.8668,VALID,349,VALID,0.257422,
2008-06-16, 00:59:04,VALID,1003.13,VALID,0,VALID,84.3907,VALID,0,VALID,25.8473,VALID,351,VALID,0.493359,
2008-06-16, 01:00:04,VALID,1003.08,VALID,0,VALID,84.467,VALID,0,VALID,25.8473,VALID,8,VALID,0.89375,
2008-06-16, 01:01:04,VALID,1003.1,VALID,0,VALID,84.4212,VALID,0,VALID,25.8473,VALID,342,VALID,0.581641,
2008-06-16, 01:02:04,VALID,1003.11,VALID,0,VALID,84.2915,VALID,0,VALID,25.8278,VALID,348,VALID,0.962109,
2008-06-16, 01:03:04,VALID,1003.11,VALID,0,VALID,84.3449,VALID,0,VALID,25.8278,VALID,350,VALID,0.717969,
2008-06-16, 01:04:04,VALID,1003.14,VALID,0,VALID,84.3678,VALID,0,VALID,25.8278,VALID,326,VALID,0.841797,
2008-06-16, 01:05:04,VALID,1003.14,VALID,0,VALID,84.3525,VALID,0,VALID,25.8278,VALID,1,VALID,0.365234,
2008-06-16, 01:06:04,VALID,1003.13,VALID,0,VALID,84.3678,VALID,0,VALID,25.8493,VALID,1,VALID,0.330078,
2008-06-16, 01:07:04,VALID,1003.09,VALID,0,VALID,84.4288,VALID,0,VALID,25.8493,VALID,1,VALID,0.270703,
2008-06-16, 01:08:04,VALID,1003.08,VALID,0,VALID,84.5051,VALID,0,VALID,25.8298,VALID,1,VALID,0.0878906,
2008-06-16, 01:09:04,VALID,1003.06,VALID,0,VALID,84.7416,VALID,0,VALID,25.8103,VALID,1,VALID,0.114453,
2008-06-16, 01:10:04,VALID,1003.07,VALID,0,VALID,84.6577,VALID,0,VALID,25.7694,VALID,1,VALID,0.276172,
2008-06-16, 01:11:04,VALID,1003.02,VALID,0,VALID,84.8866,VALID,0,VALID,25.7694,VALID,1,VALID,0.317187,
2008-06-16, 01:12:04,VALID,1003.02,VALID,0,VALID,85.0544,VALID,0,VALID,25.7304,VALID,1,VALID,0.401953,
2008-06-16, 01:13:04,VALID,1003.05,VALID,0,VALID,85.1307,VALID,0,VALID,25.7324,VALID,360,VALID,0.441016,
2008-06-16, 01:14:04,VALID,1003.05,VALID,0,VALID,85.207,VALID,0,VALID,25.7324,VALID,321,VALID,0.469922,
2008-06-16, 01:15:04,VALID,1003.05,VALID,0,VALID,85.1536,VALID,0,VALID,25.7519,VALID,313,VALID,0.542188,
2008-06-16, 01:16:04,VALID,1003.02,VALID,0,VALID,85.1612,VALID,0,VALID,25.7713,VALID,283,VALID,0.0898438,
2008-06-16, 01:17:04,VALID,1003,VALID,0,VALID,85.3214,VALID,0,VALID,25.7499,VALID,283,VALID,0.176172,
2008-06-16, 01:18:04,VALID,1002.98,VALID,0,VALID,85.4282,VALID,0.100563,VALID,25.7285,VALID,330,VALID,0.487891,
2008-06-16, 01:19:04,VALID,1002.95,VALID,0,VALID,85.5426,VALID,0,VALID,25.709,VALID,360,VALID,0.497656,
2008-06-16, 01:20:04,VALID,1002.87,VALID,0,VALID,85.802,VALID,0,VALID,25.7304,VALID,355,VALID,0.576172,
2008-06-16, 01:21:04,VALID,1002.83,VALID,0,VALID,85.8707,VALID,0,VALID,25.6895,VALID,355,VALID,0.480469,
2008-06-16, 01:22:04,VALID,1002.81,VALID,0,VALID,85.947,VALID,0.100563,VALID,25.6915,VALID,350,VALID,0.348047,
2008-06-16, 01:23:04,VALID,1002.8,VALID,0,VALID,86.069,VALID,0.100563,VALID,25.6506,VALID,351,VALID,0.473828,
2008-06-16, 01:24:04,VALID,1002.78,VALID,0,VALID,86.2521,VALID,0,VALID,25.6525,VALID,351,VALID,0,
2008-06-16, 01:25:04,VALID,1002.78,VALID,0,VALID,86.3513,VALID,0.100563,VALID,25.6116,VALID,350,VALID,0.176563,
2008-06-16, 01:26:04,VALID,1002.81,VALID,0,VALID,86.4352,VALID,0.100563,VALID,25.633,VALID,350,VALID,0.0316406,
2008-06-16, 01:27:04,VALID,1002.86,VALID,0,VALID,86.4581,VALID,0.100563,VALID,25.6116,VALID,350,VALID,0.0351563,
2008-06-16, 01:28:04,VALID,1002.87,VALID,0,VALID,86.542,VALID,0.100563,VALID,25.6136,VALID,350,VALID,0.233984,
2008-06-16, 01:29:04,VALID,1002.87,VALID,0,VALID,86.6717,VALID,0.100563,VALID,25.5921,VALID,350,VALID,0.00585938,
2008-06-16, 01:30:04,VALID,1002.9,VALID,0,VALID,86.8548,VALID,0.100563,VALID,25.6116,VALID,350,VALID,0.0941406,
2008-06-16, 01:31:04,VALID,1002.9,VALID,0,VALID,86.5878,VALID,0.100563,VALID,25.5921,VALID,280,VALID,0.583203,
2008-06-16, 01:32:04,VALID,1002.93,VALID,0,VALID,86.6412,VALID,0,VALID,25.5921,VALID,279,VALID,0.199609,
2008-06-16, 01:33:04,VALID,1002.91,VALID,0,VALID,86.6183,VALID,0,VALID,25.6136,VALID,298,VALID,0.663281,
2008-06-16, 01:34:04,VALID,1002.93,VALID,0,VALID,86.9235,VALID,0,VALID,25.633,VALID,173,VALID,0.920703,
2008-06-16, 01:35:04,VALID,1002.93,VALID,0,VALID,86.8319,VALID,0,VALID,25.6525,VALID,360,VALID,0.771094,
2008-06-16, 01:36:04,VALID,1002.89,VALID,0,VALID,86.7251,VALID,0,VALID,25.6545,VALID,337,VALID,0.8625,
2008-06-16, 01:37:04,VALID,1002.88,VALID,0,VALID,86.7785,VALID,0,VALID,25.6739,VALID,298,VALID,1.5043,
2008-06-16, 01:38:04,VALID,1002.84,VALID,0,VALID,86.8777,VALID,0,VALID,25.672,VALID,339,VALID,0.397266,
2008-06-16, 01:39:04,VALID,1002.83,VALID,0,VALID,87.221,VALID,0,VALID,25.6915,VALID,343,VALID,0.185547,
2008-06-16, 01:40:04,VALID,1002.82,VALID,0,VALID,87.5719,VALID,0,VALID,25.6545,VALID,343,VALID,0.0078125,
2008-06-16, 01:41:04,VALID,1002.79,VALID,0,VALID,87.7779,VALID,0,VALID,25.6136,VALID,343,VALID,0.242188,
2008-06-16, 01:42:04,VALID,1002.75,VALID,0,VALID,88.2738,VALID,0,VALID,25.5551,VALID,343,VALID,0.484375,
2008-06-16, 01:43:04,VALID,1002.75,VALID,0.5,VALID,88.7697,VALID,0,VALID,25.4967,VALID,343,VALID,0.316406,
2008-06-16, 01:44:04,VALID,1002.72,VALID,0,VALID,89.1816,VALID,0,VALID,25.4383,VALID,343,VALID,0.274219,
2008-06-16, 01:45:04,VALID,1002.7,VALID,0,VALID,89.3952,VALID,0,VALID,25.3584,VALID,359,VALID,0.221875,
2008-06-16, 01:46:04,VALID,1002.72,VALID,0,VALID,89.5173,VALID,0,VALID,25.3233,VALID,65,VALID,0.396094,
2008-06-16, 01:47:04,VALID,1002.74,VALID,0,VALID,89.7614,VALID,0,VALID,25.263,VALID,65,VALID,0.299609,
2008-06-16, 01:48:04,VALID,1002.78,VALID,0,VALID,90.1047,VALID,0,VALID,25.2454,VALID,65,VALID,0.337109,
2008-06-16, 01:49:04,VALID,1002.84,VALID,0,VALID,90.3641,VALID,0,VALID,25.1656,VALID,65,VALID,0.185937,
2008-06-16, 01:50:04,VALID,1002.82,VALID,0,VALID,90.6921,VALID,0,VALID,25.1267,VALID,65,VALID,0,
2008-06-16, 01:51:04,VALID,1002.81,VALID,0,VALID,90.9363,VALID,0,VALID,25.1072,VALID,65,VALID,0,
2008-06-16, 01:52:04,VALID,1002.78,VALID,0,VALID,91.1041,VALID,0,VALID,25.0877,VALID,65,VALID,0,
2008-06-16, 01:53:04,VALID,1002.76,VALID,0,VALID,91.3711,VALID,0,VALID,25.0488,VALID,65,VALID,0,
2008-06-16, 01:54:04,VALID,1002.73,VALID,0,VALID,91.5161,VALID,0,VALID,25.0507,VALID,65,VALID,0,
2008-06-16, 01:55:04,VALID,1002.71,VALID,0,VALID,91.7297,VALID,0,VALID,24.9904,VALID,65,VALID,0,
2008-06-16, 01:56:04,VALID,1002.7,VALID,0,VALID,91.8822,VALID,0,VALID,24.9514,VALID,65,VALID,0,
2008-06-16, 01:57:04,VALID,1002.64,VALID,0,VALID,92.1264,VALID,0,VALID,24.9728,VALID,65,VALID,0,
2008-06-16, 01:58:04,VALID,1002.66,VALID,0,VALID,92.2866,VALID,0,VALID,24.9319,VALID,65,VALID,0,
2008-06-16, 01:59:04,VALID,1002.63,VALID,0,VALID,92.3934,VALID,0,VALID,24.9143,VALID,65,VALID,0,
2008-06-16, 02:00:04,VALID,1002.63,VALID,0,VALID,92.546,VALID,0,VALID,24.8735,VALID,65,VALID,0,
2008-06-16, 02:01:04,VALID,1002.67,VALID,0,VALID,92.7901,VALID,0,VALID,24.854,VALID,73,VALID,0.307422,
2008-06-16, 02:02:04,VALID,1002.71,VALID,0,VALID,92.9808,VALID,0,VALID,24.854,VALID,131,VALID,0.892187,
2008-06-16, 02:03:04,VALID,1002.77,VALID,0,VALID,93.1334,VALID,0,VALID,24.8151,VALID,134,VALID,1.09102,
2008-06-16, 02:04:04,VALID,1002.81,VALID,0,VALID,93.3088,VALID,0,VALID,24.7761,VALID,151,VALID,1.53477,
2008-06-16, 02:05:04,VALID,1002.85,VALID,0,VALID,93.5377,VALID,0,VALID,24.7372,VALID,151,VALID,1.48047,
2008-06-16, 02:06:04,VALID,1002.9,VALID,0,VALID,93.6216,VALID,0,VALID,24.6964,VALID,146,VALID,1.14453,
2008-06-16, 02:07:04,VALID,1002.96,VALID,0,VALID,93.7437,VALID,0,VALID,24.6983,VALID,137,VALID,0.985937,
2008-06-16, 02:08:04,VALID,1003.01,VALID,0,VALID,93.82,VALID,0,VALID,24.7001,VALID,169,VALID,0.535937,
2008-06-16, 02:09:04,VALID,1003.07,VALID,0,VALID,93.8352,VALID,0,VALID,24.6788,VALID,180,VALID,0.512109,
2008-06-16, 02:10:04,VALID,1003.07,VALID,0,VALID,93.5835,VALID,0,VALID,24.6788,VALID,192,VALID,1.07578,
2008-06-16, 02:11:04,VALID,1003.06,VALID,0,VALID,93.4843,VALID,0,VALID,24.6788,VALID,140,VALID,0.524219,
2008-06-16, 02:12:04,VALID,1003.09,VALID,0,VALID,93.3699,VALID,0,VALID,24.7177,VALID,175,VALID,1.18086,
2008-06-16, 02:13:04,VALID,1003.12,VALID,0,VALID,93.6903,VALID,0,VALID,24.8151,VALID,198,VALID,1.79023,
2008-06-16, 02:14:04,VALID,1003.07,VALID,0,VALID,93.5987,VALID,0,VALID,24.893,VALID,189,VALID,1.28945,
2008-06-16, 02:15:04,VALID,1002.95,VALID,0,VALID,93.2631,VALID,0,VALID,24.9514,VALID,321,VALID,0.794922,
2008-06-16, 02:16:04,VALID,1002.69,VALID,0,VALID,93.0571,VALID,0,VALID,24.9125,VALID,168,VALID,1.20039,
2008-06-16, 02:17:04,VALID,1002.43,VALID,0,VALID,92.3323,VALID,0,VALID,24.8346,VALID,193,VALID,3.58086,
2008-06-16, 02:18:04,VALID,1001.92,VALID,0,VALID,92.2332,VALID,0,VALID,24.7177,VALID,199,VALID,2.64766,
2008-06-16, 06:58:04,VALID,1003.01,VALID,0,VALID,94.7583,VALID,65.9693,VALID,25.2416,VALID,296,VALID,1.01758,
2008-06-16, 06:59:04,VALID,1003.02,VALID,0,VALID,94.8728,VALID,67.5783,VALID,25.263,VALID,290,VALID,0.176953,
2008-06-16, 07:00:04,VALID,1003.04,VALID,0,VALID,94.9414,VALID,69.1873,VALID,25.2416,VALID,310,VALID,0.113672,
2008-06-16, 07:01:04,VALID,1003.03,VALID,0,VALID,94.9109,VALID,70.5952,VALID,25.2825,VALID,287,VALID,0.441797,
2008-06-16, 07:02:04,VALID,1003.06,VALID,0,VALID,94.9643,VALID,72.0031,VALID,25.2825,VALID,288,VALID,0.279297,
2008-06-16, 07:03:04,VALID,1003.05,VALID,0,VALID,94.9796,VALID,73.4109,VALID,25.2825,VALID,294,VALID,0.243359,
2008-06-16, 07:04:04,VALID,1003.09,VALID,0,VALID,95.0406,VALID,74.6177,VALID,25.3019,VALID,289,VALID,0.192578,
2008-06-16, 07:05:04,VALID,1003.11,VALID,0,VALID,95.0406,VALID,75.8245,VALID,25.3214,VALID,320,VALID,0.606641,
2008-06-16, 07:06:04,VALID,1003.12,VALID,0,VALID,95.0558,VALID,76.8301,VALID,25.3214,VALID,291,VALID,0.303906,
2008-06-16, 07:07:04,VALID,1003.14,VALID,0,VALID,94.9872,VALID,77.9363,VALID,25.3409,VALID,297,VALID,0.445313,
2008-06-16, 07:08:04,VALID,1003.16,VALID,0,VALID,94.9872,VALID,78.9419,VALID,25.3409,VALID,290,VALID,0.741016,
2008-06-16, 07:09:04,VALID,1003.19,VALID,0,VALID,95.033,VALID,80.0481,VALID,25.3409,VALID,293,VALID,0.330859,
2008-06-16, 07:10:04,VALID,1003.2,VALID,0,VALID,94.9796,VALID,80.9532,VALID,25.3195,VALID,295,VALID,0.598047,
2008-06-16, 07:11:04,VALID,1003.19,VALID,0,VALID,94.9185,VALID,82.2605,VALID,25.3604,VALID,306,VALID,0.939844,
2008-06-16, 07:12:04,VALID,1003.25,VALID,0,VALID,94.9796,VALID,83.4672,VALID,25.3604,VALID,310,VALID,0.390625,
2008-06-16, 07:13:04,VALID,1003.27,VALID,0,VALID,95.0482,VALID,84.674,VALID,25.3779,VALID,310,VALID,0,
2008-06-16, 07:14:04,VALID,1003.27,VALID,0,VALID,95.1169,VALID,85.9813,VALID,25.4188,VALID,305,VALID,0.410547,
2008-06-16, 07:15:04,VALID,1003.31,VALID,0,VALID,95.0558,VALID,87.2886,VALID,25.4383,VALID,271,VALID,0.0523437,
2008-06-16, 07:16:04,VALID,1003.32,VALID,0,VALID,95.0406,VALID,88.3948,VALID,25.4383,VALID,271,VALID,0.377344,
2008-06-16, 07:17:04,VALID,1003.33,VALID,0,VALID,95.033,VALID,89.501,VALID,25.4577,VALID,272,VALID,0.292969,
2008-06-16, 07:18:04,VALID,1003.36,VALID,0,VALID,95.0787,VALID,90.7078,VALID,25.4772,VALID,272,VALID,0.158203,
2008-06-16, 07:19:04,VALID,1003.36,VALID,0,VALID,95.0482,VALID,91.9145,VALID,25.4967,VALID,280,VALID,0.129297,
2008-06-16, 07:20:04,VALID,1003.38,VALID,0,VALID,95.0253,VALID,93.1213,VALID,25.4967,VALID,316,VALID,0.473047,
2008-06-16, 07:21:04,VALID,1003.4,VALID,0,VALID,94.9872,VALID,95.032,VALID,25.5162,VALID,319,VALID,0.130859,
2008-06-16, 07:22:04,VALID,1003.4,VALID,0,VALID,94.9719,VALID,95.6354,VALID,25.5357,VALID,295,VALID,0.0417969,
2008-06-16, 07:23:04,VALID,1003.43,VALID,0,VALID,94.9796,VALID,96.9427,VALID,25.5357,VALID,296,VALID,0.1625,
2008-06-16, 07:24:04,VALID,1003.39,VALID,0,VALID,95.0482,VALID,98.8534,VALID,25.5551,VALID,296,VALID,0,
2008-06-16, 07:25:04,VALID,1003.46,VALID,0,VALID,94.9948,VALID,100.664,VALID,25.5941,VALID,296,VALID,0.0875,
2008-06-16, 07:26:04,VALID,1003.45,VALID,0,VALID,95.0177,VALID,104.284,VALID,25.635,VALID,296,VALID,0.158594,
2008-06-16, 07:27:04,VALID,1003.46,VALID,0,VALID,95.0253,VALID,107.703,VALID,25.6545,VALID,296,VALID,0.0253906,
2008-06-16, 07:28:04,VALID,1003.45,VALID,0,VALID,94.9567,VALID,110.619,VALID,25.6525,VALID,326,VALID,0.0738281,
2008-06-16, 07:29:04,VALID,1003.49,VALID,0,VALID,94.9796,VALID,115.145,VALID,25.672,VALID,326,VALID,0.0839844,
2008-06-16, 07:30:04,VALID,1003.48,VALID,0,VALID,94.949,VALID,117.055,VALID,25.7109,VALID,326,VALID,0.210156,
2008-06-16, 07:31:04,VALID,1003.49,VALID,0,VALID,94.8422,VALID,125.201,VALID,25.7109,VALID,332,VALID,0.353516,
2008-06-16, 07:32:04,VALID,1003.55,VALID,0,VALID,94.7354,VALID,126.106,VALID,25.7109,VALID,351,VALID,0.611719,
2008-06-16, 07:33:04,VALID,1003.55,VALID,0,VALID,94.7354,VALID,124.799,VALID,25.7499,VALID,344,VALID,0.337891,
2008-06-16, 07:34:04,VALID,1003.57,VALID,0,VALID,94.6591,VALID,125.201,VALID,25.7908,VALID,1,VALID,0.615234,
2008-06-16, 07:35:04,VALID,1003.59,VALID,0,VALID,94.6439,VALID,132.542,VALID,25.7889,VALID,340,VALID,0.603125,
2008-06-16, 07:36:04,VALID,1003.61,VALID,0,VALID,94.7354,VALID,126.307,VALID,25.8278,VALID,274,VALID,0.0976563,
2008-06-16, 07:37:04,VALID,1003.61,VALID,0,VALID,94.7583,VALID,127.816,VALID,25.8882,VALID,274,VALID,0.0890625,
2008-06-16, 07:38:04,VALID,1003.62,VALID,0,VALID,94.682,VALID,145.112,VALID,25.8863,VALID,276,VALID,0.388672,
2008-06-16, 07:39:04,VALID,1003.64,VALID,0,VALID,94.3769,VALID,160.7,VALID,25.9077,VALID,289,VALID,0.808984,
2008-06-16, 07:40:04,VALID,1003.64,VALID,0,VALID,94.4761,VALID,162.007,VALID,25.9272,VALID,292,VALID,0.285547,
2008-06-16, 07:41:04,VALID,1003.66,VALID,0,VALID,94.3692,VALID,160.498,VALID,25.9661,VALID,296,VALID,0.866406,
2008-06-16, 07:42:04,VALID,1003.65,VALID,0,VALID,94.1251,VALID,179.907,VALID,25.9836,VALID,297,VALID,0.809766,
2008-06-16, 07:43:04,VALID,1003.66,VALID,0,VALID,93.8963,VALID,181.114,VALID,26.0031,VALID,296,VALID,1.00117,
2008-06-16, 07:44:04,VALID,1003.65,VALID,0,VALID,94.1633,VALID,188.757,VALID,26.0616,VALID,277,VALID,0.841016,
2008-06-16, 07:45:04,VALID,1003.66,VALID,0,VALID,93.9802,VALID,199.718,VALID,26.1005,VALID,315,VALID,1.2668,
2008-06-16, 07:46:04,VALID,1003.63,VALID,0,VALID,93.2554,VALID,206.556,VALID,26.12,VALID,282,VALID,1.5043,
2008-06-16, 07:47:04,VALID,1003.65,VALID,0,VALID,93.2097,VALID,216.613,VALID,26.1784,VALID,303,VALID,1.01719,
2008-06-16, 07:48:04,VALID,1003.7,VALID,0,VALID,93.1334,VALID,220.736,VALID,26.2564,VALID,295,VALID,0.920703,
2008-06-16, 07:49:04,VALID,1003.7,VALID,0,VALID,93.5072,VALID,182.119,VALID,26.3343,VALID,284,VALID,0.290234,
2008-06-16, 07:50:04,VALID,1003.71,VALID,0,VALID,93.7742,VALID,247.687,VALID,26.4122,VALID,251,VALID,0.176953,
2008-06-16, 07:51:04,VALID,1003.74,VALID,0,VALID,93.7132,VALID,273.431,VALID,26.5096,VALID,296,VALID,0.419531,
2008-06-16, 07:52:04,VALID,1003.71,VALID,0,VALID,92.8969,VALID,292.336,VALID,26.5681,VALID,282,VALID,1.16289,
2008-06-16, 07:53:04,VALID,1003.74,VALID,0,VALID,93.3928,VALID,188.556,VALID,26.6655,VALID,228,VALID,0.376172,
2008-06-16, 07:54:04,VALID,1003.73,VALID,0,VALID,93.7208,VALID,339.199,VALID,26.8039,VALID,230,VALID,0.2125,
2008-06-16, 07:55:04,VALID,1003.74,VALID,0,VALID,93.5301,VALID,361.725,VALID,26.8993,VALID,226,VALID,0.341406,
2008-06-16, 07:56:04,VALID,1003.78,VALID,0,VALID,93.4767,VALID,370.172,VALID,26.9967,VALID,226,VALID,0.194531,
2008-06-16, 07:57:04,VALID,1003.81,VALID,0,VALID,92.5765,VALID,395.414,VALID,27.1331,VALID,274,VALID,0.508203,
2008-06-16, 07:58:04,VALID,1003.76,VALID,0,VALID,90.3946,VALID,408.185,VALID,27.1352,VALID,278,VALID,1.06016,
2008-06-16, 07:59:04,VALID,1003.76,VALID,0,VALID,89.4181,VALID,401.548,VALID,27.17,VALID,264,VALID,1.59531,
2008-06-16, 08:00:04,VALID,1003.78,VALID,0,VALID,90.2954,VALID,402.553,VALID,27.289,VALID,265,VALID,0.451953,
2008-06-16, 08:01:04,VALID,1003.79,VALID,0,VALID,88.5332,VALID,407.582,VALID,27.3496,VALID,250,VALID,1.82383,
2008-06-16, 08:02:04,VALID,1003.79,VALID,0,VALID,88.0678,VALID,408.487,VALID,27.367,VALID,199,VALID,1.15313,
2008-06-16, 08:03:04,VALID,1003.82,VALID,0,VALID,88.0449,VALID,404.766,VALID,27.4059,VALID,224,VALID,1.1332,
2008-06-16, 08:04:04,VALID,1003.78,VALID,0,VALID,87.9228,VALID,409.291,VALID,27.486,VALID,240,VALID,0.765625,
2008-06-16, 08:05:04,VALID,1003.79,VALID,0,VALID,86.8014,VALID,405.872,VALID,27.5034,VALID,273,VALID,1.36602,
2008-06-16, 08:06:04,VALID,1003.84,VALID,0,VALID,87.755,VALID,390.184,VALID,27.5834,VALID,227,VALID,0.655859,
2008-06-16, 08:07:04,VALID,1003.79,VALID,0,VALID,86.3971,VALID,385.86,VALID,27.6224,VALID,242,VALID,1.11719,
2008-06-16, 08:08:04,VALID,1003.76,VALID,0,VALID,87.9686,VALID,342.92,VALID,27.6593,VALID,336,VALID,0.265234,
2008-06-16, 08:09:04,VALID,1003.78,VALID,0,VALID,86.4428,VALID,369.468,VALID,27.7199,VALID,262,VALID,1.17266,
2008-06-16, 08:10:04,VALID,1003.8,VALID,0,VALID,86.6488,VALID,390.084,VALID,27.6983,VALID,258,VALID,0.975391,
2008-06-16, 08:11:04,VALID,1003.76,VALID,0,VALID,86.2979,VALID,391.693,VALID,27.7178,VALID,255,VALID,1.00547,
2008-06-16, 08:12:04,VALID,1003.76,VALID,0,VALID,85.3443,VALID,397.928,VALID,27.7783,VALID,265,VALID,1.70156,
2008-06-16, 08:13:04,VALID,1003.77,VALID,0,VALID,85.4587,VALID,401.95,VALID,27.8173,VALID,336,VALID,0.702344,
2008-06-16, 08:14:04,VALID,1003.74,VALID,0,VALID,84.3983,VALID,381.435,VALID,27.8152,VALID,225,VALID,1.78047,
2008-06-16, 08:15:04,VALID,1003.74,VALID,0,VALID,84.1466,VALID,413.012,VALID,27.8368,VALID,250,VALID,0.907031,
2008-06-16, 08:16:04,VALID,1003.77,VALID,0,VALID,86.5878,VALID,419.347,VALID,27.8953,VALID,281,VALID,0.159375,
2008-06-16, 08:17:04,VALID,1003.78,VALID,0,VALID,85.2604,VALID,421.057,VALID,28.0512,VALID,237,VALID,0.863281,
2008-06-16, 08:18:04,VALID,1003.76,VALID,0,VALID,84.7416,VALID,434.13,VALID,28.1097,VALID,242,VALID,0.698438,